"Platform","Spectacle Reef Light Station"
"NDBC ID","SRLM4"
"Latitude (deg)",45.77320
"Longitude (deg)",-84.13670
"Water Depth (m)",1.2
"Sensor Device","System Power Controller board voltage input"
"Sensor Type","Solar panel voltage"
"Sensor Units","voltage"
"Measurement","A sample"
"Time means","Time at sample (UTC time zone)"

"Note:","This data was collected for research purposes."
"Note:","Minimal quality checking has been performed so data may contain known or unknown errors."
"Note:","Data provided by NOAA. Please credit NOAA."
"Note:","For more info see www.glerl.noaa.gov/res/recon"

"Time (UTC)","Solar Panel"
"YYYY/MM/DD HH:MM","volts"
2015/10/06 00:58, 0.58
2015/10/06 01:58, 0.58
2015/10/06 02:58, 0.58
2015/10/06 03:58, 0.59
2015/10/06 04:58, 0.58
2015/10/06 05:58, 0.58
2015/10/06 06:58, 0.59
2015/10/06 07:58, 0.58
2015/10/06 08:58, 0.58
2015/10/06 09:58, 0.58
2015/10/06 10:58, 0.58
2015/10/06 11:58, 12.62
2015/10/06 12:58, 12.62
2015/10/06 13:58, 12.62
2015/10/06 14:58, 12.91
2015/10/06 15:58, 13.01
2015/10/06 16:58, 14.56
2015/10/06 17:58, 13.69
2015/10/06 18:58, 18.53
2015/10/06 19:58, 17.63
2015/10/06 20:58, 13.59
2015/10/06 21:58, 13.30
2015/10/06 22:58, 13.02
2015/10/06 23:58, 0.58
2015/10/07 00:58, 0.58
2015/10/07 01:58, 0.58
2015/10/07 02:58, 0.58
2015/10/07 03:58, 0.58
2015/10/07 04:58, 0.58
2015/10/07 05:58, 0.59
2015/10/07 06:58, 0.58
2015/10/07 07:58, 0.59
2015/10/07 08:58, 0.59
2015/10/07 09:58, 0.58
2015/10/07 10:58, 0.58
2015/10/07 11:58, 13.10
2015/10/07 12:58, 18.28
2015/10/07 13:58, 20.22
2015/10/07 14:58, 20.59
2015/10/07 15:58, 20.74
2015/10/07 16:58, 20.66
2015/10/07 17:58, 21.06
2015/10/07 18:58, 20.59
2015/10/07 19:58, 20.46
2015/10/07 20:58, 18.63
2015/10/07 21:58, 13.30
2015/10/07 22:58, 13.02
2015/10/07 23:58, 0.58
2015/10/08 00:58, 0.58
2015/10/08 01:58, 0.58
2015/10/08 02:58, 0.58
2015/10/08 03:58, 0.58
2015/10/08 04:58, 0.58
2015/10/08 05:58, 0.59
2015/10/08 06:58, 0.58
2015/10/08 07:58, 0.58
2015/10/08 08:58, 0.58
2015/10/08 09:58, 0.58
2015/10/08 10:58, 0.58
2015/10/08 11:58, 12.81
2015/10/08 12:58, 12.91
2015/10/08 13:58, 13.13
2015/10/08 14:58, 13.20
2015/10/08 15:58, 13.44
2015/10/08 16:58, 13.30
2015/10/08 17:58, 13.29
2015/10/08 18:58, 13.30
2015/10/08 19:58, 12.98
2015/10/08 20:58, 12.91
2015/10/08 21:58, 12.81
2015/10/08 22:58, 12.81
2015/10/08 23:58, 0.58
2015/10/09 00:58, 0.58
2015/10/09 01:58, 0.58
2015/10/09 02:58, 0.58
2015/10/09 03:58, 0.58
2015/10/09 04:58, 0.58
2015/10/09 05:58, 0.58
2015/10/09 06:58, 0.58
2015/10/09 07:58, 0.58
2015/10/09 08:58, 0.58
2015/10/09 09:58, 0.58
2015/10/09 10:58, 0.58
2015/10/09 11:58, 12.62
2015/10/09 12:58, 12.62
2015/10/09 13:58, 13.59
2015/10/09 14:58, 19.92
2015/10/09 15:58, 20.44
2015/10/09 16:58, 20.64
2015/10/09 17:58, 20.95
2015/10/09 18:58, 19.21
2015/10/09 19:58, 18.25
2015/10/09 20:58, 18.21
2015/10/09 21:58, 13.30
2015/10/09 22:58, 13.06
2015/10/09 23:58, 0.59
2015/10/10 00:58, 0.58
2015/10/10 01:58, 0.58
2015/10/10 02:58, 0.58
2015/10/10 03:58, 0.58
2015/10/10 04:58, 0.58
2015/10/10 05:58, 0.58
2015/10/10 06:58, 0.58
2015/10/10 07:58, 0.58
2015/10/10 08:58, 0.58
2015/10/10 09:58, 0.58
2015/10/10 10:58, 0.58
2015/10/10 11:58, 13.20
2015/10/10 12:58, 19.34
2015/10/10 13:58, 13.69
2015/10/10 14:58, 21.32
2015/10/10 15:58, 21.48
2015/10/10 16:58, 19.61
2015/10/10 17:58, 21.56
2015/10/10 18:58, 19.70
2015/10/10 19:58, 18.31
2015/10/10 20:58, 14.88
2015/10/10 21:58, 13.30
2015/10/10 22:58, 13.01
2015/10/10 23:58, 0.58
2015/10/11 00:58, 0.58
2015/10/11 01:58, 0.58
2015/10/11 02:58, 0.58
2015/10/11 03:58, 0.58
2015/10/11 04:58, 0.58
2015/10/11 05:58, 0.58
2015/10/11 06:58, 0.58
2015/10/11 07:58, 0.58
2015/10/11 08:58, 0.58
2015/10/11 09:58, 0.58
2015/10/11 10:58, 0.58
2015/10/11 11:58, 12.87
2015/10/11 12:58, 16.88
2015/10/11 13:58, 20.48
2015/10/11 14:58, 21.10
2015/10/11 15:58, 21.00
2015/10/11 16:58, 20.91
2015/10/11 17:58, 20.75
2015/10/11 18:58, 20.73
2015/10/11 19:58, 19.84
2015/10/11 20:58, 18.53
2015/10/11 21:58, 13.30
2015/10/11 22:58, 13.05
2015/10/11 23:58, 0.58
2015/10/12 00:58, 0.58
2015/10/12 01:58, 0.58
2015/10/12 02:58, 0.58
2015/10/12 03:58, 0.58
2015/10/12 04:58, 0.58
2015/10/12 05:58, 0.58
2015/10/12 06:58, 0.58
2015/10/12 07:58, 0.58
2015/10/12 08:58, 0.58
2015/10/12 09:58, 0.58
2015/10/12 10:58, 0.58
2015/10/12 11:58, 12.91
2015/10/12 12:58, 13.31
2015/10/12 13:58, 13.25
2015/10/12 14:58, 13.67
2015/10/12 15:58, 13.63
2015/10/12 16:58, 13.59
2015/10/12 17:58, 13.30
2015/10/12 18:58, 13.40
2015/10/12 19:58, 13.11
2015/10/12 20:58, 13.69
2015/10/12 21:58, 13.30
2015/10/12 22:58, 12.93
2015/10/12 23:58, 0.58
2015/10/13 00:58, 0.58
2015/10/13 01:58, 0.58
2015/10/13 02:58, 0.58
2015/10/13 03:58, 0.58
2015/10/13 04:58, 0.58
2015/10/13 05:58, 0.58
2015/10/13 06:58, 0.58
2015/10/13 07:42, 0.58
2015/10/13 07:58, 0.59
2015/10/13 08:58, 0.58
2015/10/13 09:58, 0.58
2015/10/13 11:58, 12.77
2015/10/13 12:58, 12.81
2015/10/13 13:58, 12.81
2015/10/13 14:58, 13.38
2015/10/13 15:58, 13.79
2015/10/13 16:58, 13.59
2015/10/13 17:58, 13.30
2015/10/13 18:58, 18.84
2015/10/13 19:58, 17.85
2015/10/13 20:58, 13.79
2015/10/13 21:58, 13.21
2015/10/13 22:58, 13.01
2015/10/13 23:58, 0.58
2015/10/14 00:58, 0.58
2015/10/14 01:58, 0.58
2015/10/14 02:58, 0.58
2015/10/14 03:58, 0.58
2015/10/14 04:58, 0.58
2015/10/14 05:58, 0.58
2015/10/14 06:58, 0.58
2015/10/14 07:58, 0.58
2015/10/14 08:58, 0.58
2015/10/14 09:58, 0.58
2015/10/14 10:58, 0.58
2015/10/14 11:58, 12.75
2015/10/14 12:58, 13.79
2015/10/14 13:58, 13.77
2015/10/14 14:58, 13.78
2015/10/14 15:58, 14.87
2015/10/14 16:58, 16.30
2015/10/14 17:58, 21.43
2015/10/14 18:58, 21.61
2015/10/14 19:58, 20.79
2015/10/14 20:58, 18.67
2015/10/14 21:58, 13.30
2015/10/14 22:58, 13.01
2015/10/14 23:58, 0.58
2015/10/15 00:58, 0.58
2015/10/15 01:58, 0.58
2015/10/15 02:58, 0.58
2015/10/15 03:58, 0.58
2015/10/15 04:58, 0.59
2015/10/15 05:58, 0.58
2015/10/15 06:58, 0.58
2015/10/15 07:58, 0.58
2015/10/15 08:58, 0.58
2015/10/15 09:58, 0.58
2015/10/15 10:58, 0.58
2015/10/15 11:58, 12.81
2015/10/15 12:58, 12.81
2015/10/15 13:58, 13.69
2015/10/15 14:58, 20.32
2015/10/15 15:58, 21.01
2015/10/15 16:58, 21.22
2015/10/15 17:58, 20.78
2015/10/15 18:58, 13.60
2015/10/15 19:58, 17.06
2015/10/15 20:58, 13.05
2015/10/15 21:58, 13.01
2015/10/15 22:58, 12.92
2015/10/15 23:58, 0.58
2015/10/16 00:58, 0.58
2015/10/16 01:58, 0.58
2015/10/16 02:58, 0.58
2015/10/16 03:58, 0.58
2015/10/16 04:58, 0.58
2015/10/16 05:58, 0.58
2015/10/16 06:58, 0.58
2015/10/16 07:58, 0.58
2015/10/16 08:58, 0.58
2015/10/16 09:58, 0.58
2015/10/16 10:58, 0.59
2015/10/16 11:58, 12.63
2015/10/16 12:58, 17.51
2015/10/16 13:58, 19.88
2015/10/16 14:58, 21.60
2015/10/16 15:58, 21.75
2015/10/16 16:58, 22.01
2015/10/16 17:58, 20.67
2015/10/16 18:58, 19.44
2015/10/16 19:58, 21.15
2015/10/16 20:58, 19.06
2015/10/16 21:58, 13.29
2015/10/16 22:58, 13.01
2015/10/16 23:58, 0.58
2015/10/17 00:58, 0.58
2015/10/17 01:58, 0.58
2015/10/17 02:58, 0.58
2015/10/17 03:58, 0.58
2015/10/17 04:58, 0.58
2015/10/17 05:58, 0.58
2015/10/17 06:58, 0.58
2015/10/17 07:58, 0.58
2015/10/17 08:58, 0.58
2015/10/17 09:58, 0.58
2015/10/17 10:58, 0.58
2015/10/17 11:58, 12.81
2015/10/17 12:58, 17.89
2015/10/17 13:58, 14.89
2015/10/17 14:58, 20.49
2015/10/17 15:58, 21.36
2015/10/17 16:58, 21.16
2015/10/17 17:58, 21.77
2015/10/17 18:58, 19.75
2015/10/17 19:58, 18.46
2015/10/17 20:58, 19.96
2015/10/17 21:58, 13.30
2015/10/17 22:58, 13.01
2015/10/17 23:58, 0.58
2015/10/18 00:58, 0.58
2015/10/18 01:58, 0.58
2015/10/18 02:58, 0.58
2015/10/18 03:58, 0.58
2015/10/18 04:58, 0.58
2015/10/18 05:58, 0.58
2015/10/18 06:58, 0.58
2015/10/18 07:58, 0.58
2015/10/18 08:58, 0.58
2015/10/18 09:58, 0.58
2015/10/18 10:58, 0.58
2015/10/18 11:58, 12.62
2015/10/18 12:58, 18.39
2015/10/18 13:58, 17.01
2015/10/18 14:58, 21.57
2015/10/18 15:58, 20.49
2015/10/18 16:58, 20.83
2015/10/18 17:58, 20.79
2015/10/18 18:58, 20.73
2015/10/18 19:58, 21.14
2015/10/18 20:58, 19.75
2015/10/18 21:58, 13.34
2015/10/18 22:58, 13.01
2015/10/18 23:58, 0.58
2015/10/19 00:58, 0.58
2015/10/19 01:58, 0.58
2015/10/19 02:58, 0.58
2015/10/19 03:58, 0.58
2015/10/19 04:58, 0.58
2015/10/19 05:58, 0.58
2015/10/19 06:58, 0.59
2015/10/19 07:58, 0.58
2015/10/19 08:58, 0.58
2015/10/19 09:58, 0.58
2015/10/19 10:58, 0.58
2015/10/19 11:58, 12.62
2015/10/19 12:58, 13.36
2015/10/19 13:58, 20.17
2015/10/19 14:58, 21.22
2015/10/19 15:58, 19.85
2015/10/19 16:58, 19.09
2015/10/19 17:58, 20.38
2015/10/19 18:58, 19.29
2015/10/19 19:58, 20.51
2015/10/19 20:58, 18.62
2015/10/19 21:58, 13.20
2015/10/19 22:58, 3.72
2015/10/19 23:58, 0.58
2015/10/20 00:58, 0.58
2015/10/20 01:58, 0.58
2015/10/20 02:58, 0.58
2015/10/20 03:58, 0.58
2015/10/20 04:58, 0.58
2015/10/20 05:58, 0.58
2015/10/20 06:58, 0.58
2015/10/20 07:58, 0.58
2015/10/20 08:58, 0.58
2015/10/20 09:58, 0.58
2015/10/20 10:58, 0.58
2015/10/20 11:58, 12.75
2015/10/20 12:58, 15.19
2015/10/20 13:58, 13.66
2015/10/20 14:58, 20.03
2015/10/20 15:58, 21.12
2015/10/20 16:58, 21.31
2015/10/20 17:58, 21.05
2015/10/20 18:58, 21.24
2015/10/20 19:58, 20.35
2015/10/20 20:58, 17.70
2015/10/20 21:58, 13.40
2015/10/20 22:58, 13.01
2015/10/20 23:58, 0.58
2015/10/21 00:58, 0.58
2015/10/21 01:58, 0.58
2015/10/21 02:58, 0.58
2015/10/21 03:58, 0.58
2015/10/21 04:58, 0.58
2015/10/21 05:58, 0.58
2015/10/21 06:58, 0.58
2015/10/21 07:58, 0.58
2015/10/21 08:58, 0.58
2015/10/21 09:58, 0.58
2015/10/21 10:58, 0.58
2015/10/21 11:58, 12.64
2015/10/21 12:58, 12.86
2015/10/21 13:58, 13.69
2015/10/21 14:58, 13.29
2015/10/21 15:58, 13.30
2015/10/21 16:58, 13.01
2015/10/21 17:58, 12.89
2015/10/21 18:58, 13.01
2015/10/21 19:58, 13.30
2015/10/21 20:58, 12.82
2015/10/21 21:58, 12.81
2015/10/21 22:58, 12.62
2015/10/21 23:58, 0.58
2015/10/22 00:58, 0.58
2015/10/22 01:58, 0.58
2015/10/22 02:58, 0.58
2015/10/22 03:58, 0.59
2015/10/22 04:58, 0.58
2015/10/22 05:58, 0.58
2015/10/22 06:58, 0.58
2015/10/22 07:58, 0.58
2015/10/22 08:58, 0.58
2015/10/22 09:58, 0.58
2015/10/22 10:58, 0.58
2015/10/22 11:58, 12.62
2015/10/22 12:58, 12.62
2015/10/22 13:58, 17.43
2015/10/22 14:58, 19.66
2015/10/22 15:58, 13.40
2015/10/22 16:58, 18.12
2015/10/22 17:58, 17.60
2015/10/22 18:58, 18.75
2015/10/22 19:58, 20.46
2015/10/22 20:58, 18.75
2015/10/22 21:58, 13.30
2015/10/22 22:58, 13.01
2015/10/22 23:58, 0.58
2015/10/23 00:58, 0.58
2015/10/23 01:58, 0.58
2015/10/23 02:58, 0.59
2015/10/23 03:58, 0.58
2015/10/23 04:58, 0.58
2015/10/23 05:58, 0.58
2015/10/23 06:58, 0.58
2015/10/23 07:58, 0.58
2015/10/23 08:58, 0.58
2015/10/23 09:58, 0.58
2015/10/23 10:58, 0.58
2015/10/23 11:58, 12.81
2015/10/23 12:58, 16.73
2015/10/23 13:58, 19.74
2015/10/23 14:58, 18.41
2015/10/23 15:58, 16.20
2015/10/23 16:58, 17.66
2015/10/23 17:58, 20.36
2015/10/23 18:58, 21.41
2015/10/23 19:58, 18.73
2015/10/23 20:58, 13.40
2015/10/23 21:58, 13.01
2015/10/23 22:58, 2.43
2015/10/23 23:58, 0.58
2015/10/24 00:58, 0.58
2015/10/24 01:58, 0.58
2015/10/24 02:58, 0.58
2015/10/24 03:58, 0.58
2015/10/24 04:58, 0.58
2015/10/24 05:58, 0.58
2015/10/24 06:58, 0.58
2015/10/24 07:58, 0.58
2015/10/24 08:58, 0.58
2015/10/24 09:58, 0.58
2015/10/24 10:58, 0.58
2015/10/24 11:58, 5.24
2015/10/24 12:58, 12.81
2015/10/24 13:58, 12.82
2015/10/24 14:58, 13.58
2015/10/24 15:58, 13.79
2015/10/24 16:58, 13.46
2015/10/24 17:58, 20.27
2015/10/24 18:58, 20.18
2015/10/24 19:58, 13.79
2015/10/24 20:58, 13.16
2015/10/24 21:58, 13.01
2015/10/24 22:58, 12.91
2015/10/24 23:58, 0.58
2015/10/25 00:58, 0.58
2015/10/25 01:58, 0.58
2015/10/25 02:58, 0.58
2015/10/25 03:58, 0.58
2015/10/25 04:58, 0.58
2015/10/25 05:58, 0.58
2015/10/25 06:58, 0.58
2015/10/25 07:58, 0.58
2015/10/25 08:58, 0.58
2015/10/25 09:58, 0.58
2015/10/25 10:58, 0.58
2015/10/25 11:58, 12.62
2015/10/25 12:58, 13.49
2015/10/25 13:58, 13.79
2015/10/25 14:58, 13.30
2015/10/25 15:58, 13.44
2015/10/25 16:58, 13.79
2015/10/25 17:58, 16.99
2015/10/25 18:58, 21.30
2015/10/25 19:58, 20.48
2015/10/25 20:58, 19.12
2015/10/25 21:58, 13.30
2015/10/25 22:58, 13.01
2015/10/25 23:58, 0.58
2015/10/26 00:58, 0.58
2015/10/26 01:58, 0.58
2015/10/26 02:58, 0.58
2015/10/26 03:58, 0.58
2015/10/26 04:58, 0.58
2015/10/26 05:58, 0.58
2015/10/26 06:58, 0.58
2015/10/26 07:58, 0.58
2015/10/26 08:58, 0.58
2015/10/26 09:58, 0.58
2015/10/26 10:58, 0.58
2015/10/26 11:58, 12.62
2015/10/26 12:58, 13.30
2015/10/26 13:58, 17.98
2015/10/26 14:58, 19.73
2015/10/26 15:58, 19.84
2015/10/26 16:58, 20.47
2015/10/26 17:58, 19.93
2015/10/26 18:58, 20.65
2015/10/26 19:58, 16.33
2015/10/26 20:58, 13.13
2015/10/26 21:58, 13.01
2015/10/26 22:58, 0.58
2015/10/26 23:58, 0.58
2015/10/27 00:58, 0.58
2015/10/27 01:58, 0.58
2015/10/27 02:58, 0.58
2015/10/27 03:58, 0.59
2015/10/27 04:58, 0.58
2015/10/27 05:58, 0.58
2015/10/27 06:58, 0.58
2015/10/27 07:58, 0.58
2015/10/27 08:58, 0.58
2015/10/27 09:58, 0.58
2015/10/27 10:58, 0.58
2015/10/27 11:58, 12.62
2015/10/27 12:58, 13.01
2015/10/27 13:58, 16.86
2015/10/27 14:58, 18.91
2015/10/27 15:58, 19.95
2015/10/27 16:58, 20.94
2015/10/27 17:58, 20.60
2015/10/27 18:58, 21.37
2015/10/27 19:58, 20.74
2015/10/27 20:58, 19.40
2015/10/27 21:58, 13.30
2015/10/27 22:58, 13.01
2015/10/27 23:58, 0.58
2015/10/28 00:58, 0.58
2015/10/28 01:58, 0.58
2015/10/28 02:58, 0.58
2015/10/28 03:58, 0.58
2015/10/28 04:58, 0.59
2015/10/28 05:58, 0.58
2015/10/28 06:58, 0.58
2015/10/28 07:58, 0.58
2015/10/28 08:58, 0.58
2015/10/28 09:58, 0.58
2015/10/28 10:58, 0.58
2015/10/28 11:58, 2.17
2015/10/28 12:58, 12.62
2015/10/28 13:58, 12.62
2015/10/28 14:58, 12.79
2015/10/28 15:58, 12.82
2015/10/28 16:58, 12.91
2015/10/28 17:58, 12.81
2015/10/28 18:58, 12.82
2015/10/28 19:58, 12.81
2015/10/28 20:58, 12.70
2015/10/28 21:58, 12.72
2015/10/28 22:58, 0.59
2015/10/28 23:58, 0.58
2015/10/29 00:58, 0.58
2015/10/29 01:58, 0.58
2015/10/29 02:58, 0.58
2015/10/29 03:58, 0.58
2015/10/29 04:58, 0.58
2015/10/29 05:58, 0.58
2015/10/29 06:58, 0.58
2015/10/29 07:58, 0.58
2015/10/29 08:58, 0.58
2015/10/29 09:58, 0.58
2015/10/29 10:58, 0.58
2015/10/29 11:58, 12.62
2015/10/29 12:58, 14.37
2015/10/29 13:58, 13.30
2015/10/29 14:58, 13.30
2015/10/29 15:58, 13.30
2015/10/29 16:58, 13.22
2015/10/29 17:58, 13.11
2015/10/29 18:58, 13.30
2015/10/29 19:58, 13.21
2015/10/29 20:58, 12.99
2015/10/29 21:58, 12.91
2015/10/29 22:58, 12.82
2015/10/29 23:58, 0.58
2015/10/30 00:58, 0.58
2015/10/30 01:58, 0.58
2015/10/30 02:58, 0.58
2015/10/30 03:58, 0.58
2015/10/30 04:58, 0.58
2015/10/30 05:58, 0.58
2015/10/30 06:58, 0.58
2015/10/30 07:58, 0.58
2015/10/30 08:58, 0.59
2015/10/30 09:58, 0.58
2015/10/30 10:58, 0.58
2015/10/30 11:58, 12.45
2015/10/30 12:58, 13.30
2015/10/30 13:58, 18.36
2015/10/30 14:58, 19.66
2015/10/30 15:58, 20.88
2015/10/30 16:58, 20.29
2015/10/30 17:58, 19.71
2015/10/30 18:58, 14.93
2015/10/30 19:58, 14.82
2015/10/30 20:58, 13.88
2015/10/30 21:58, 13.11
2015/10/30 22:58, 13.01
2015/10/30 23:58, 0.58
2015/10/31 00:58, 0.58
2015/10/31 01:58, 0.58
2015/10/31 02:58, 0.58
2015/10/31 03:58, 0.58
2015/10/31 04:58, 0.58
2015/10/31 05:58, 0.58
2015/10/31 06:58, 0.58
2015/10/31 07:58, 0.58
2015/10/31 08:58, 0.59
2015/10/31 09:58, 0.58
2015/10/31 10:58, 0.58
2015/10/31 11:58, 2.25
2015/10/31 12:58, 12.81
2015/10/31 13:58, 12.84
2015/10/31 14:58, 12.91
2015/10/31 15:58, 13.01
2015/10/31 16:58, 12.91
2015/10/31 17:58, 12.91
2015/10/31 18:58, 12.82
2015/10/31 19:58, 12.82
2015/10/31 20:58, 12.81
2015/10/31 21:58, 12.71
2015/10/31 22:58, 0.58
2015/10/31 23:58, 0.58
2015/11/01 00:58, 0.58
2015/11/01 01:58, 0.58
2015/11/01 02:58, 0.58
2015/11/01 03:58, 0.58
2015/11/01 04:58, 0.58
2015/11/01 05:58, 0.58
2015/11/01 06:58, 0.58
2015/11/01 07:58, 0.58
2015/11/01 08:58, 0.58
2015/11/01 09:58, 0.58
2015/11/01 10:58, 0.58
2015/11/01 11:58, 12.61
2015/11/01 12:58, 13.10
2015/11/01 13:58, 12.62
2015/11/01 14:58, 16.68
2015/11/01 15:58, 13.30
2015/11/01 16:58, 13.30
2015/11/01 17:58, 16.45
2015/11/01 18:58, 13.88
2015/11/01 19:58, 13.30
2015/11/01 20:58, 13.11
2015/11/01 21:58, 13.01
2015/11/01 22:58, 0.58
2015/11/01 23:58, 0.58
2015/11/02 00:58, 0.58
2015/11/02 01:58, 0.58
2015/11/02 02:58, 0.58
2015/11/02 03:58, 0.58
2015/11/02 04:58, 0.58
2015/11/02 05:58, 0.58
2015/11/02 06:58, 0.58
2015/11/02 07:58, 0.58
2015/11/02 08:58, 0.58
2015/11/02 09:58, 0.58
2015/11/02 10:58, 0.58
2015/11/02 11:58, 3.59
2015/11/02 12:58, 12.62
2015/11/02 13:58, 14.17
2015/11/02 14:58, 16.75
2015/11/02 15:58, 20.35
2015/11/02 16:58, 20.11
2015/11/02 17:58, 13.87
2015/11/02 18:58, 14.58
2015/11/02 19:58, 13.30
2015/11/02 20:58, 14.17
2015/11/02 21:58, 13.09
2015/11/02 22:58, 12.97
2015/11/02 23:58, 0.58
2015/11/03 00:58, 0.58
2015/11/03 01:58, 0.58
2015/11/03 02:58, 0.58
2015/11/03 03:58, 0.58
2015/11/03 04:58, 0.58
2015/11/03 05:58, 0.58
2015/11/03 06:58, 0.58
2015/11/03 07:58, 0.58
2015/11/03 08:58, 0.58
2015/11/03 09:58, 0.58
2015/11/03 10:58, 0.58
2015/11/03 11:58, 12.80
2015/11/03 12:58, 12.91
2015/11/03 13:58, 13.30
2015/11/03 14:58, 13.30
2015/11/03 15:58, 13.79
2015/11/03 16:58, 15.14
2015/11/03 17:58, 19.75
2015/11/03 18:58, 18.56
2015/11/03 19:58, 13.49
2015/11/03 20:58, 13.30
2015/11/03 21:58, 13.11
2015/11/03 22:58, 12.91
2015/11/03 23:58, 0.58
2015/11/04 00:58, 0.58
2015/11/04 01:58, 0.58
2015/11/04 02:58, 0.58
2015/11/04 03:58, 0.58
2015/11/04 04:58, 0.58
2015/11/04 05:58, 0.58
2015/11/04 06:58, 0.58
2015/11/04 07:58, 0.58
2015/11/04 08:58, 0.58
2015/11/04 09:58, 0.58
2015/11/04 10:58, 0.58
2015/11/04 11:58, 12.62
2015/11/04 12:58, 14.17
2015/11/04 13:58, 19.73
2015/11/04 14:58, 20.28
2015/11/04 15:58, 20.28
2015/11/04 16:58, 20.34
2015/11/04 17:58, 20.16
2015/11/04 18:58, 20.17
2015/11/04 19:58, 19.95
2015/11/04 20:58, 18.07
2015/11/04 21:58, 13.13
2015/11/04 22:58, 0.58
2015/11/04 23:58, 0.58
2015/11/05 00:58, 0.58
2015/11/05 01:58, 0.58
2015/11/05 02:58, 0.58
2015/11/05 03:58, 0.58
2015/11/05 04:58, 0.58
2015/11/05 05:58, 0.58
2015/11/05 06:58, 0.58
2015/11/05 07:58, 0.58
2015/11/05 08:58, 0.58
2015/11/05 09:58, 0.59
2015/11/05 10:58, 0.58
2015/11/05 11:58, 12.72
2015/11/05 12:58, 13.30
2015/11/05 13:58, 14.37
2015/11/05 14:58, 20.14
2015/11/05 15:58, 20.13
2015/11/05 16:58, 20.61
2015/11/05 17:58, 20.11
2015/11/05 18:58, 20.45
2015/11/05 19:58, 13.60
2015/11/05 20:58, 17.48
2015/11/05 21:58, 13.11
2015/11/05 22:58, 0.58
2015/11/05 23:58, 0.58
2015/11/06 00:58, 0.58
2015/11/06 01:58, 0.58
2015/11/06 02:58, 0.58
2015/11/06 03:58, 0.58
2015/11/06 04:58, 0.58
2015/11/06 05:58, 0.58
2015/11/06 06:58, 0.58
2015/11/06 07:58, 0.59
2015/11/06 08:58, 0.58
2015/11/06 09:58, 0.58
2015/11/06 10:58, 0.58
2015/11/06 11:58, 0.58
2015/11/06 12:58, 12.68
2015/11/06 13:58, 12.81
2015/11/06 14:58, 13.11
2015/11/06 15:58, 13.11
2015/11/06 16:58, 13.11
2015/11/06 17:58, 13.88
2015/11/06 18:58, 13.47
2015/11/06 19:58, 13.78
2015/11/06 20:58, 17.96
2015/11/06 21:58, 13.11
2015/11/06 22:58, 12.94
2015/11/06 23:58, 0.58
2015/11/07 00:58, 0.58
2015/11/07 01:58, 0.58
2015/11/07 02:58, 0.58
2015/11/07 03:58, 0.58
2015/11/07 04:58, 0.58
2015/11/07 05:58, 0.58
2015/11/07 06:58, 0.58
2015/11/07 07:58, 0.58
2015/11/07 08:58, 0.58
2015/11/07 09:58, 0.58
2015/11/07 10:58, 0.58
2015/11/07 11:58, 3.59
2015/11/07 12:58, 12.81
2015/11/07 13:58, 19.65
2015/11/07 14:58, 13.88
2015/11/07 15:58, 21.48
2015/11/07 16:58, 21.77
2015/11/07 17:58, 18.35
2015/11/07 18:58, 14.65
2015/11/07 19:58, 16.32
2015/11/07 20:58, 13.30
2015/11/07 21:58, 13.01
2015/11/07 22:58, 12.92
2015/11/07 23:58, 0.58
2015/11/08 00:58, 0.58
2015/11/08 01:58, 0.58
2015/11/08 02:58, 0.58
2015/11/08 03:58, 0.58
2015/11/08 04:58, 0.58
2015/11/08 05:58, 0.58
2015/11/08 06:58, 0.58
2015/11/08 07:58, 0.58
2015/11/08 08:58, 0.58
2015/11/08 09:58, 0.58
2015/11/08 10:58, 0.58
2015/11/08 11:58, 12.62
2015/11/08 12:58, 14.17
2015/11/08 13:58, 20.64
2015/11/08 14:58, 21.43
2015/11/08 15:58, 21.59
2015/11/08 16:58, 21.75
2015/11/08 17:58, 21.60
2015/11/08 18:58, 21.55
2015/11/08 19:58, 20.84
2015/11/08 20:58, 18.67
2015/11/08 21:58, 13.16
2015/11/08 22:58, 13.01
2015/11/08 23:58, 0.58
2015/11/09 00:58, 0.58
2015/11/09 01:58, 0.58
2015/11/09 02:58, 0.58
2015/11/09 03:58, 0.58
2015/11/09 04:58, 0.58
2015/11/09 05:58, 0.58
2015/11/09 06:58, 0.58
2015/11/09 07:58, 0.58
2015/11/09 08:58, 0.58
2015/11/09 09:58, 0.59
2015/11/09 10:58, 0.58
2015/11/09 11:58, 12.63
2015/11/09 12:58, 14.17
2015/11/09 13:58, 20.53
2015/11/09 14:58, 21.39
2015/11/09 15:58, 21.55
2015/11/09 16:58, 21.63
2015/11/09 17:58, 21.63
2015/11/09 18:58, 21.27
2015/11/09 19:58, 20.49
2015/11/09 20:58, 18.95
2015/11/09 21:58, 13.20
2015/11/09 22:58, 0.58
2015/11/09 23:58, 0.59
2015/11/10 00:58, 0.59
2015/11/10 01:58, 0.58
2015/11/10 02:58, 0.58
2015/11/10 03:58, 0.58
2015/11/10 04:58, 0.59
2015/11/10 05:58, 0.58
2015/11/10 06:58, 0.58
2015/11/10 07:58, 0.58
2015/11/10 08:58, 0.58
2015/11/10 09:58, 0.58
2015/11/10 10:58, 0.58
2015/11/10 11:58, 1.40
2015/11/10 12:58, 12.80
2015/11/10 13:58, 12.91
2015/11/10 14:58, 13.10
2015/11/10 15:58, 13.11
2015/11/10 16:58, 13.40
2015/11/10 17:58, 13.55
2015/11/10 18:58, 14.82
2015/11/10 19:58, 13.69
2015/11/10 20:58, 13.30
2015/11/10 21:58, 13.01
2015/11/10 22:58, 0.58
2015/11/10 23:58, 0.58
2015/11/11 00:58, 0.58
2015/11/11 01:58, 0.58
2015/11/11 02:58, 0.58
2015/11/11 03:58, 0.58
2015/11/11 04:58, 0.58
2015/11/11 05:58, 0.58
2015/11/11 06:58, 0.58
2015/11/11 07:58, 0.58
2015/11/11 08:58, 0.59
2015/11/11 09:58, 0.58
2015/11/11 10:58, 0.58
2015/11/11 11:58, 2.43
2015/11/11 12:58, 13.12
2015/11/11 13:58, 18.61
2015/11/11 14:58, 20.10
2015/11/11 15:58, 20.56
2015/11/11 16:58, 20.64
2015/11/11 17:58, 20.88
2015/11/11 18:58, 16.01
2015/11/11 19:58, 13.58
2015/11/11 20:58, 13.11
2015/11/11 21:58, 13.01
2015/11/11 22:58, 12.92
2015/11/11 23:58, 0.58
2015/11/12 00:58, 0.58
2015/11/12 01:58, 0.58
2015/11/12 02:58, 0.58
2015/11/12 03:58, 0.58
2015/11/12 04:58, 0.58
2015/11/12 05:58, 0.58
2015/11/12 06:58, 0.58
2015/11/12 07:58, 0.58
2015/11/12 08:58, 0.58
2015/11/12 09:58, 0.58
2015/11/12 10:58, 0.58
2015/11/12 11:58, 0.58
2015/11/12 12:58, 12.62
2015/11/12 13:58, 12.62
2015/11/12 14:58, 12.62
2015/11/12 15:58, 12.62
2015/11/12 16:58, 12.62
2015/11/12 17:58, 12.81
2015/11/12 18:58, 12.81
2015/11/12 19:58, 12.62
2015/11/12 20:58, 12.62
2015/11/12 21:58, 12.62
2015/11/12 22:58, 12.62
2015/11/12 23:58, 0.58
2015/11/13 00:58, 0.58
2015/11/13 01:58, 0.58
2015/11/13 02:58, 0.58
2015/11/13 03:58, 0.58
2015/11/13 04:58, 0.58
2015/11/13 05:58, 0.58
2015/11/13 06:58, 0.58
2015/11/13 07:58, 0.58
2015/11/13 08:58, 0.58
2015/11/13 09:58, 0.58
2015/11/13 10:58, 0.58
2015/11/13 11:58, 0.58
2015/11/13 12:58, 12.60
2015/11/13 13:58, 12.62
2015/11/13 14:58, 12.91
2015/11/13 15:58, 13.01
2015/11/13 16:58, 13.11
2015/11/13 17:58, 13.30
2015/11/13 18:58, 13.00
2015/11/13 19:58, 13.10
2015/11/13 20:58, 13.01
2015/11/13 21:58, 12.79
2015/11/13 22:58, 12.62
2015/11/13 23:58, 0.59
2015/11/14 00:58, 0.58
2015/11/14 01:58, 0.58
2015/11/14 02:58, 0.58
2015/11/14 03:58, 0.58
2015/11/14 04:58, 0.58
2015/11/14 05:58, 0.58
2015/11/14 06:58, 0.58
2015/11/14 07:58, 0.58
2015/11/14 08:58, 0.58
2015/11/14 09:58, 0.58
2015/11/14 10:58, 0.58
2015/11/14 11:58, 0.58
2015/11/14 12:58, 12.33
2015/11/14 13:58, 13.20
2015/11/14 14:58, 13.40
2015/11/14 15:58, 13.30
2015/11/14 16:58, 13.69